[Date Prev][Date Next][Thread Prev][Thread Next] - [Date Index][Thread Index][Author Index]

2 Line ISS Keps 4-21



ISS
1 25544U 98067A   02111.11474390  .00043734  00000-0  58283-3 0  3347
2 25544  51.6391 339.6869 0006736 349.0285 148.3808 15.57654844195123


----
Via the sarex mailing list at AMSAT.ORG courtesy of AMSAT-NA.
To unsubscribe, send "unsubscribe sarex" to Majordomo@amsat.org



AMSAT Top AMSAT Home